GW1679 Weather Reports


Display with metric or nautical units.
time (UTC)temp
F
wind
direction
speed
MPH
gust
MPH
rain 1hr
in
rain 24hr
in
rain mn
in
humidity
%
barometer
mb
20260504234309 73 117 1.0 1.0 0.00 0.00 0.00 38 1030.4
20260504233805 73 177 0.0 0.0 0.00 0.00 0.00 40 1030.4
20260504233301 74 169 1.0 1.0 0.00 0.00 0.00 38 1030.2
20260504232758 74 188 1.0 1.0 0.00 0.00 0.00 37 1030.2
20260504232255 75 167 0.0 1.0 0.00 0.00 0.00 37 1030.3
20260504231752 75 193 0.0 1.0 0.00 0.00 0.00 34 1030.3
20260504231248 76 214 3.0 3.0 0.00 0.00 0.00 34 1030.2
20260504230744 76 88 1.0 2.0 0.00 0.00 0.00 34 1030.2
20260504230243 76 181 0.0 1.0 0.00 0.00 0.00 34 1030.1
20260504225741 77 142 1.0 2.0 0.00 0.00 0.00 34 1030.1
20260504225237 77 196 2.0 2.0 0.00 0.00 0.00 36 1030.0
20260504224734 78 192 1.0 6.0 0.00 0.00 0.00 31 1030.1
20260504224232 78 171 0.0 1.0 0.00 0.00 0.00 35 1030.0
20260504223728 79 168 1.0 1.0 0.00 0.00 0.00 35 1030.1
20260504223223 79 160 1.0 1.0 0.00 0.00 0.00 32 1030.0
20260504222721 80 36 1.0 2.0 0.00 0.00 0.00 32 1030.1
20260504222218 80 196 2.0 5.0 0.00 0.00 0.00 31 1030.1
20260504221715 81 227 1.0 1.0 0.00 0.00 0.00 29 1029.9
20260504221212 81 205 1.0 5.0 0.00 0.00 0.00 27 1030.0
20260504220708 81 269 2.0 3.0 0.00 0.00 0.00 27 1030.1
20260504220206 80 187 1.0 2.0 0.00 0.00 0.00 26 1030.1
20260504215702 80 245 4.0 7.0 0.00 0.00 0.00 26 1029.9
20260504215200 81 255 1.0 3.0 0.00 0.00 0.00 26 1030.0
20260504214655 81 212 4.0 8.0 0.00 0.00 0.00 26 1030.1
20260504214152 81 220 3.0 3.0 0.00 0.00 0.00 26 1030.2
20260504213649 82 273 2.0 6.0 0.00 0.00 0.00 25 1030.2
20260504213145 82 199 1.0 3.0 0.00 0.00 0.00 24 1030.0
20260504212642 81 229 3.0 5.0 0.00 0.00 0.00 26 1030.3
20260504212138 81 231 1.0 3.0 0.00 0.00 0.00 25 1030.2
20260504211636 82 267 4.0 6.0 0.00 0.00 0.00 24 1030.2
20260504211132 82 245 3.0 3.0 0.00 0.00 0.00 24 1030.1
20260504210630 82 350 2.0 2.0 0.00 0.00 0.00 25 1030.2
20260504210126 82 206 1.0 2.0 0.00 0.00 0.00 25 1030.2
20260504205624 81 257 1.0 2.0 0.00 0.00 0.00 25 1030.2
20260504205121 81 202 3.0 3.0 0.00 0.00 0.00 25 1030.4
20260504204620 81 211 1.0 6.0 0.00 0.00 0.00 25 1030.3
20260504204118 81 195 4.0 6.0 0.00 0.00 0.00 23 1030.6
20260504203616 81 39 3.0 7.0 0.00 0.00 0.00 25 1030.6
20260504203114 81 238 2.0 6.0 0.00 0.00 0.00 26 1030.5
20260504202609 80 223 2.0 2.0 0.00 0.00 0.00 26 1030.5
20260504202106 80 19 4.0 6.0 0.00 0.00 0.00 25 1030.6
20260504201602 81 232 2.0 7.0 0.00 0.00 0.00 26 1030.7
20260504201100 81 233 2.0 3.0 0.00 0.00 0.00 27 1030.6
20260504200556 81 238 3.0 6.0 0.00 0.00 0.00 24 1030.8
20260504200053 81 31 2.0 3.0 0.00 0.00 0.00 25 1031.1
20260504195550 81 172 1.0 6.0 0.00 0.00 0.00 25 1031.0
20260504195046 80 192 1.0 3.0 0.00 0.00 0.00 25 1031.0
20260504194543 81 354 3.0 7.0 0.00 0.00 0.00 25 1031.0
20260504194038 81 334 3.0 3.0 0.00 0.00 0.00 28 1030.9
20260504193535 80 197 3.0 5.0 0.00 0.00 0.00 25 1030.6
20260504193034 80 342 0.0 5.0 0.00 0.00 0.00 25 1031.0
20260504192532 80 253 3.0 5.0 0.00 0.00 0.00 27 1031.0
20260504192030 80 238 1.0 3.0 0.00 0.00 0.00 28 1031.0
20260504191527 80 229 4.0 6.0 0.00 0.00 0.00 28 1031.3
20260504191023 80 256 5.0 7.0 0.00 0.00 0.00 27 1031.2
20260504190519 79 240 2.0 6.0 0.00 0.00 0.00 26 1031.5
20260504190015 79 215 1.0 3.0 0.00 0.00 0.00 29 1031.4
20260504185513 79 236 2.0 7.0 0.00 0.00 0.00 27 1031.6
20260504185009 78 226 3.0 7.0 0.00 0.00 0.00 29 1031.4
20260504184504 78 263 2.0 2.0 0.00 0.00 0.00 31 1031.5
20260504184000 78 186 1.0 7.0 0.00 0.00 0.00 29 1031.3
20260504183457 77 230 4.0 6.0 0.00 0.00 0.00 29 1031.3
20260504182955 77 220 4.0 13.0 0.00 0.00 0.00 29 1031.6
20260504182452 77 222 3.0 5.0 0.00 0.00 0.00 26 1031.6
20260504181949 78 228 3.0 6.0 0.00 0.00 0.00 31 1031.7
20260504181446 77 269 3.0 10.0 0.00 0.00 0.00 30 1031.5
20260504180945 77 173 2.0 5.0 0.00 0.00 0.00 29 1031.5
20260504180443 76 232 3.0 7.0 0.00 0.00 0.00 31 1031.6
20260504175941 76 224 2.0 7.0 0.00 0.00 0.00 31 1031.9
20260504175438 77 250 2.0 5.0 0.00 0.00 0.00 30 1031.8
20260504174936 76 203 2.0 3.0 0.00 0.00 0.00 31 1031.8
20260504174433 76 219 3.0 9.0 0.00 0.00 0.00 31 1032.0
20260504173930 77 225 4.0 6.0 0.00 0.00 0.00 30 1032.2
20260504173426 76 236 2.0 2.0 0.00 0.00 0.00 33 1032.0
20260504172924 75 188 1.0 2.0 0.00 0.00 0.00 33 1032.1
20260504172420 75 232 5.0 6.0 0.00 0.00 0.00 34 1032.3
20260504171916 76 251 4.0 7.0 0.00 0.00 0.00 32 1032.5
20260504171414 76 209 3.0 9.0 0.00 0.00 0.00 31 1032.4
20260504170911 75 220 1.0 5.0 0.00 0.00 0.00 34 1032.2
20260504170407 75 235 3.0 5.0 0.00 0.00 0.00 33 1032.5
20260504160326 72 160 1.0 3.0 0.00 0.00 0.00 42 1033.0
20260504150751 69 217 2.0 2.0 0.00 0.00 0.00 50 1033.2
20260504150247 68 222 3.0 3.0 0.00 0.00 0.00 48 1033.1
20260504141217 64 210 5.0 6.0 0.00 0.00 0.00 54 1033.6
20260504140714 64 249 2.0 3.0 0.00 0.00 0.00 55 1033.3
20260504140209 64 199 1.0 5.0 0.00 0.00 0.00 57 1033.3
20260504130638 58 218 0.0 1.0 0.00 0.00 0.00 75 1033.6
20260504130134 57 219 2.0 2.0 0.00 0.00 0.00 77 1033.6
20260504110525 44 44 0.0 0.0 0.00 0.00 0.00 96 1033.7
20260504100442 44 44 0.0 0.0 0.00 0.00 0.00 95 1033.5
20260504081835 45 44 0.0 0.0 0.00 0.00 0.00 92 1033.5
20260504081331 45 44 0.0 0.0 0.00 0.00 0.00 92 1033.6
20260504080827 45 44 0.0 0.0 0.00 0.00 0.00 91 1033.5
20260504080325 45 44 0.0 0.0 0.00 0.00 0.00 91 1033.6
20260504070252 44 88 0.0 1.0 0.00 0.00 0.00 90 1033.3
20260504060212 44 178 1.0 1.0 0.00 0.00 0.00 91 1033.6
20260504050640 44 179 0.0 0.0 0.00 0.00 0.00 91 1033.8
20260504050137 44 179 0.0 0.0 0.00 0.00 0.00 91 1033.8
20260504045634 44 179 0.0 0.0 0.00 0.00 0.00 91 1033.9
20260504045134 44 179 0.0 0.0 0.00 0.00 0.00 91 1034.0
20260504044633 44 179 0.0 0.0 0.00 0.00 0.00 91 1033.9
20260504044129 44 179 0.0 0.0 0.00 0.00 0.00 90 1033.9
20260504043626 44 179 0.0 0.0 0.00 0.00 0.00 90 1034.0
20260504043124 44 179 0.0 0.0 0.00 0.00 0.00 90 1033.9
20260504042621 44 179 0.0 0.0 0.00 0.00 0.00 90 1033.8
20260504042117 44 179 0.0 0.0 0.00 0.00 0.00 90 1033.9
20260504041613 45 179 0.0 0.0 0.00 0.00 0.00 90 1034.0
20260504041110 45 179 0.0 0.0 0.00 0.00 0.00 89 1034.0
20260504040607 45 179 0.0 0.0 0.00 0.00 0.00 89 1033.9
20260504040103 45 179 0.0 0.0 0.00 0.00 0.00 89 1033.9
20260504035600 45 179 0.0 0.0 0.00 0.00 0.00 88 1033.9
20260504035056 45 179 0.0 0.0 0.00 0.00 0.00 88 1033.9
20260504034555 45 179 0.0 0.0 0.00 0.00 0.00 88 1033.9
20260504034051 45 179 0.0 0.0 0.00 0.00 0.00 87 1033.8
20260504033549 46 179 0.0 0.0 0.00 0.00 0.00 87 1033.9
20260504033046 46 179 0.0 0.0 0.00 0.00 0.00 87 1033.7
20260504032543 46 179 0.0 0.0 0.00 0.00 0.00 87 1033.6
20260504032040 46 179 0.0 0.0 0.00 0.00 0.00 86 1033.8
20260504031537 46 179 0.0 0.0 0.00 0.00 0.00 86 1033.8
20260504031033 46 179 0.0 0.0 0.00 0.00 0.00 86 1033.8
20260504030531 46 179 0.0 0.0 0.00 0.00 0.00 86 1033.7
20260504030026 46 179 0.0 0.0 0.00 0.00 0.00 85 1033.7
20260504025524 46 179 0.0 0.0 0.00 0.00 0.00 85 1033.6
20260504025020 46 179 0.0 0.0 0.00 0.00 0.00 84 1033.6
20260504024518 46 179 0.0 0.0 0.00 0.00 0.00 84 1033.8
20260504024014 47 179 0.0 0.0 0.00 0.00 0.00 83 1033.7
20260504023511 47 179 0.0 0.0 0.00 0.00 0.00 82 1033.9
20260504023007 47 179 0.0 0.0 0.00 0.00 0.00 81 1033.5
20260504022503 47 179 0.0 0.0 0.00 0.00 0.00 81 1033.7
20260504021959 48 179 0.0 0.0 0.00 0.00 0.00 80 1033.5
20260504021457 48 179 0.0 0.0 0.00 0.00 0.00 79 1033.8
20260504020954 48 179 0.0 0.0 0.00 0.00 0.00 78 1033.6
20260504020450 48 179 0.0 0.0 0.00 0.00 0.00 78 1033.6
20260504015947 48 179 0.0 0.0 0.00 0.00 0.00 77 1033.5
20260504015443 49 179 0.0 0.0 0.00 0.00 0.00 76 1033.6
20260504014939 49 179 0.0 0.0 0.00 0.00 0.00 75 1033.7
20260504014436 49 179 0.0 0.0 0.00 0.00 0.00 74 1033.5
20260504013932 50 179 0.0 0.0 0.00 0.00 0.00 73 1033.7
20260504013431 50 179 0.0 0.0 0.00 0.00 0.00 72 1033.7
20260504012927 50 179 0.0 0.0 0.00 0.00 0.00 71 1033.4
20260504012425 50 179 0.0 0.0 0.00 0.00 0.00 71 1033.3
20260504011922 51 179 0.0 0.0 0.00 0.00 0.00 69 1033.4
20260504011419 51 179 0.0 0.0 0.00 0.00 0.00 68 1033.3
20260504010915 51 179 0.0 0.0 0.00 0.00 0.00 67 1033.2
20260504010411 51 179 0.0 0.0 0.00 0.00 0.00 65 1033.1
20260504005907 52 179 0.0 0.0 0.00 0.00 0.00 65 1033.0
20260504005404 52 179 0.0 0.0 0.00 0.00 0.00 64 1032.9
20260504004902 53 179 0.0 0.0 0.00 0.00 0.00 63 1033.0
20260504004400 53 179 0.0 0.0 0.00 0.00 0.00 61 1033.1
20260504003856 54 179 0.0 0.0 0.00 0.00 0.00 60 1032.9
20260504003352 54 179 0.0 0.0 0.00 0.00 0.00 59 1032.8
20260504002849 55 179 0.0 0.0 0.00 0.00 0.00 57 1032.8
20260504002346 55 179 0.0 0.0 0.00 0.00 0.00 55 1032.6
20260504001844 56 179 0.0 0.0 0.00 0.00 0.00 54 1032.7
20260504001341 57 179 0.0 0.0 0.00 0.00 0.00 52 1032.7
20260504000837 57 179 0.0 0.0 0.00 0.00 0.00 51 1032.6
20260504000335 58 179 0.0 0.0 0.00 0.00 0.00 50 1032.4
20260503235832 59 179 0.0 0.0 0.00 0.00 0.00 46 1032.5
20260503235330 59 179 0.0 0.0 0.00 0.00 0.00 46 1032.6
20260503234827 60 179 0.0 0.0 0.00 0.00 0.00 43 1032.5